Back to catalog

STARLINK-5665

AliveCommunicationsVLEO
NORAD 55361·PAYLOAD·🇺🇸 United States

Launched Jan 26, 2023 from Cape Canaveral Space Force Station

Loading…

Next Passes (next 24 hours)

TLE

FreshSource: CelesTrak SupGP

Epoch: Sep 14, 2026, 14:44 UTC

1 55361C 23013AG  26257.61437500  .00054218  00000+0  19627-2 0  2570
2 55361  43.0035 301.6565 0001940 289.0618 231.4611 15.27569452    16

Track STARLINK-5665 in real time with AllMySat

Download on the App Store